Temperature
23 22 21 20 19 19 18 17 17 16 15 15 15 14 14 14 14 14 13 13 13 13 13 13 13 13 13 14 14 14 14 14 15 15 15 16 16 16 17 17 17 17 17
23 21 20 20 19 18 18 17 17 16 15 15 14 14 14 14 14 13 13 13 13 13 13 13 13 13 13 13 14 14 14 14 14 15 15 15 16 16 17 17 17 17 17
23 21 21 20 19 18 18 17 17 16 15 15 14 14 14 14 14 13 13 13 13 13 13 13 13 13 13 13 13 13 14 14 14 14 15 15 15 16 16 17 17 17 17
24 22 21 20 19 18 18 17 16 16 15 15 14 14 14 14 14 13 13 13 13 13 13 13 13 13 13 13 13 13 13 14 14 14 14 15 15 15 16 16 16 17 17
24 22 21 20 19 19 18 17 16 16 15 15 14 14 14 14 14 13 13 13 13 13 13 13 13 13 13 13 13 13 13 13 14 14 14 14 15 15 15 16 16 16 16
23 22 21 20 19 18 17 17 16 15 15 15 14 14 14 14 13 13 13 13 13 13 13 13 13 13 13 13 13 13 13 13 13 14 14 14 14 15 15 15 15 16 16
23 22 21 20 19 18 17 16 16 15 15 15 14 14 14 14 13 13 13 13 13 13 13 13 13 13 13 13 13 13 13 13 13 13 13 14 14 14 14 15 15 15 15
23 22 21 20 19 18 17 16 16 15 15 15 14 14 14 14 13 13 13 13 13 13 13 13 13 13 13 13 13 13 13 13 13 13 13 13 14 14 14 14 14 15 15
23 22 21 19 18 18 17 16 16 15 15 15 14 14 14 14 13 13 13 13 13 13 13 13 13 13 13 13 13 13 13 13 13 13 13 13 13 13 14 14 14 14 14
23 22 20 19 18 18 17 16 16 15 15 15 14 14 14 13 13 13 13 13 13 13 13 13 13 13 13 13 13 13 13 13 13 13 13 13 13 13 13 13 14 14 14
23 22 20 19 18 18 17 16 16 15 15 15 14 14 14 14 13 13 13 13 13 13 13 13 13 13 13 13 13 13 13 13 13 13 13 13 13 13 13 13 13 13 13
23 22 20 19 18 18 17 16 16 16 15 15 14 14 14 14 14 13 13 13 13 13 13 13 13 13 13 13 13 13 13 13 13 13 13 13 13 13 13 13 13 13 13
23 22 20 19 18 18 17 17 16 16 15 15 14 14 14 14 14 13 13 13 13 13 13 13 13 13 13 13 13 13 13 13 13 13 13 13 13 13 13 13 13 13 13
23 22 20 19 19 18 17 17 16 16 15 15 15 14 14 14 14 14 13 13 13 13 13 13 13 13 13 13 13 13 13 13 13 13 13 13 13 13 13 13 13 13 13
23 22 21 20 19 18 18 17 17 16 16 15 15 15 14 14 14 14 14 13 13 13 13 13 13 13 13 13 13 13 13 13 13 13 13 13 13 13 13 13 13 13 13
23 22 21 20 19 18 18 17 17 16 16 15 15 15 15 14 14 14 14 14 13 13 13 13 13 13 13 13 13 13 13 13 13 13 13 13 13 13 13 13 13 13 13
23 23 22 21 20 19 19 18 17 17 16 16 15 15 15 15 14 14 14 14 14 14 14 13 13 13 13 13 14 13 13 13 13 13 13 13 13 13 13 13 13 13 13
23 23 22 22 21 20 19 18 18 17 16 16 16 15 15 15 15 14 14 14 14 14 14 14 13 13 13 14 13 13 13 13 13 13 13 13 13 13 13 13 13 13 13
23 23 22 22 21 20 20 19 18 17 17 16 16 16 15 15 15 15 15 14 14 14 14 14 13 13 13 13 13 13 13 13 13 13 13 13 13 13 13 13 12 12 12
22 22 22 22 21 21 20 19 18 18 17 17 16 16 16 15 15 15 15 15 14 14 14 14 13 13 13 13 13 13 13 13 13 13 13 13 13 13 13 12 12 12 12
22 22 22 21 21 21 20 19 19 18 18 17 16 16 16 15 15 15 15 14 14 14 14 14 13 13 13 13 13 13 13 13 13 13 13 13 13 13 12 12 12 12 12
21 21 21 21 21 20 20 19 19 18 18 17 17 16 16 15 15 15 15 14 14 14 13 13 13 13 13 13 13 13 13 13 12 12 12 12 12 12 12 12 12 12 12
21 20 20 20 20 20 20 19 19 18 18 17 17 16 16 15 15 15 15 14 14 13 13 13 13 13 13 13 13 13 12 12 12 12 12 12 12 12 11 11 11 11 11
20 20 20 19 19 19 19 19 19 18 18 17 17 16 16 15 15 15 14 14 14 13 13 13 13 13 13 13 12 12 12 12 11 11 11 11 11 11 11 11 11 10 10
19 19 19 19 19 19 19 19 18 18 18 17 17 16 15 15 15 14 14 14 14 13 13 13 13 12 12 12 12 12 11 11 11 11 10 10 10 10 10 10 10 10 10
18 18 18 18 18 18 18 18 18 18 17 17 16 16 15 15 15 14 14 13 13 13 13 13 12 12 12 12 12 11 11 11 10 10 10 10 10 9 9 9 9 9 9
Wind_Speed
10 9 9 7 6 5 4 5 3 3 3 3 2 2 2 2 2 2 2 3 4 5 4 4 3 3 2 3 3 2 3 2 1 1 2 3 3 3 4 3 2 3 3
11 11 9 8 5 5 3 3 4 4 4 2 1 1 2 2 1 1 2 3 4 3 5 4 3 2 2 2 3 2 1 2 1 1 1 1 1 3 4 3 3 3 2
11 13 10 9 6 5 4 3 3 4 4 2 1 2 2 2 1 2 2 2 2 2 3 4 4 3 2 1 3 1 1 1 2 0 1 1 1 2 2 3 3 3 2
8 11 10 9 7 6 5 4 4 3 4 3 2 2 2 2 2 2 1 3 1 2 2 4 4 3 2 2 3 1 1 1 1 1 1 1 0 1 1 2 2 3 3
8 9 10 8 7 7 5 3 4 4 4 3 2 2 2 2 2 2 2 3 2 2 2 3 4 3 2 2 2 2 1 0 0 1 1 1 1 1 0 1 2 2 2
8 8 9 8 7 7 6 3 4 4 4 1 1 1 1 2 3 3 3 3 1 1 2 3 3 3 3 2 2 2 1 0 0 1 1 0 0 1 0 0 1 1 2
8 9 9 9 8 8 6 4 4 4 4 2 2 1 1 1 2 2 2 3 2 2 3 3 3 3 3 2 2 2 1 1 0 1 0 0 1 0 0 0 1 1 1
7 9 10 9 9 8 7 5 5 4 4 3 1 1 2 0 1 2 2 2 2 2 2 2 2 2 3 3 2 2 2 1 0 1 1 0 1 1 1 0 0 1 1
7 8 10 10 9 9 8 6 6 5 4 3 1 1 1 1 1 1 2 2 2 2 3 3 2 1 1 2 2 2 2 2 1 1 1 1 0 0 0 0 1 1 0
7 8 9 9 9 8 8 7 6 5 5 3 2 2 1 1 0 1 2 3 3 2 3 3 3 2 1 1 2 2 2 2 1 0 0 1 0 1 0 0 0 1 1
8 8 9 9 9 9 8 7 7 6 5 4 3 3 2 1 1 1 1 1 2 2 2 2 2 2 3 2 2 2 2 2 2 1 1 1 0 0 0 0 0 1 1
8 9 9 9 9 9 8 8 7 7 6 4 3 3 3 2 1 0 0 1 1 1 2 2 3 3 3 3 3 2 2 2 2 2 1 0 0 1 1 0 0 0 1
8 9 9 9 9 9 8 8 7 7 7 5 4 3 4 3 2 0 0 1 2 1 1 1 2 3 3 3 2 2 2 1 1 1 2 2 2 2 1 1 0 0 0
9 9 9 9 9 9 9 8 8 8 8 7 5 4 3 4 3 1 0 1 2 2 2 2 2 2 3 3 3 2 2 2 2 2 2 3 3 3 2 2 1 1 0
10 11 11 10 10 10 9 9 8 9 8 8 6 5 4 4 3 2 1 0 1 2 2 3 3 3 3 4 5 5 4 3 2 2 2 3 3 4 3 2 2 2 1
9 10 12 12 12 11 11 10 9 9 9 9 8 6 4 4 4 3 2 2 1 1 1 2 2 2 2 4 5 4 4 3 3 2 1 1 2 2 1 1 1 1 1
7 9 11 12 12 12 12 11 10 10 9 9 8 8 6 5 4 4 3 2 2 2 1 1 1 0 1 2 3 4 3 3 2 2 2 2 3 2 1 1 2 2 3
5 8 9 10 11 11 11 11 10 10 10 9 9 8 7 6 5 4 3 3 3 3 2 2 2 1 1 1 2 3 2 3 2 2 2 1 3 4 4 3 2 1 1
3 5 7 9 11 11 11 11 11 11 10 9 9 9 9 7 7 6 5 4 3 2 2 2 3 2 2 2 2 2 3 2 1 0 2 2 3 5 5 3 3 3 2
2 3 5 6 9 10 11 12 12 11 11 10 9 9 9 8 7 6 5 4 3 4 3 2 2 2 2 2 1 1 2 2 2 1 3 4 4 4 5 3 3 4 4
1 2 4 5 6 9 10 11 11 12 11 10 9 8 8 8 7 6 4 4 4 3 3 3 3 3 3 3 2 2 1 2 2 1 2 2 4 4 4 3 2 3 4
2 2 3 4 5 7 10 10 10 10 10 10 9 8 8 8 7 6 5 4 3 3 4 4 3 2 3 4 3 2 0 2 2 2 2 2 4 4 4 3 4 5 5
3 3 4 5 5 7 9 10 9 9 11 11 10 9 8 7 6 6 5 4 3 3 3 3 2 2 3 4 4 1 1 1 1 1 3 3 3 2 1 2 4 4 3
4 4 5 6 6 7 9 9 9 11 11 11 10 9 8 8 7 5 4 3 2 2 2 2 2 2 3 3 2 0 0 1 1 1 1 2 2 2 3 3 3 3 3
5 5 6 7 8 8 8 9 10 12 11 12 11 10 8 8 7 5 3 3 3 2 2 2 2 3 3 3 3 2 2 2 2 1 1 2 3 3 4 4 4 4 5
7 6 7 7 8 8 9 9 10 12 12 11 11 9 8 8 8 8 6 9 7 8 9 8 6 5 7 6 6 6 6 5 4 4 3 3 3 4 4 4 4 5 5
Wind_Direction
167 148 142 139 143 138 118 114 113 101 84 57 3 358 347 326 1 352 23 342 345 349 321 324 327 331 324 312 308 309 307 295 266 275 287 270 239 237 241 244 258 235 193
159 145 151 148 159 144 131 126 107 90 87 83 351 312 350 324 355 333 351 350 353 348 330 336 325 317 294 301 298 293 286 289 283 207 253 284 291 265 241 234 244 242 193
165 157 160 152 159 152 143 131 115 118 105 99 41 2 348 301 341 350 25 341 338 346 338 329 323 313 312 302 287 284 285 275 286 271 175 203 238 276 263 232 233 237 212
154 150 153 155 161 152 140 144 128 112 101 92 66 333 304 2 3 352 10 314 359 7 352 328 321 315 324 320 307 334 291 257 287 301 291 286 216 203 289 289 243 231 217
152 149 152 154 154 139 132 132 120 107 95 84 113 288 352 8 354 344 5 336 27 1 5 336 325 330 337 341 324 325 303 282 242 279 295 308 309 278 205 284 300 286 247
151 149 145 140 134 123 125 129 124 112 111 137 195 203 28 2 340 351 2 331 336 359 23 343 336 346 350 346 343 331 329 12 286 281 280 262 281 278 279 253 301 284 293
153 151 145 142 139 137 143 154 150 140 142 189 217 135 84 335 346 0 343 326 351 11 11 355 347 357 346 339 344 322 306 279 122 269 303 331 287 306 13 60 327 331 306
154 155 150 148 148 151 157 167 158 153 155 198 196 132 123 296 21 10 327 345 4 358 355 343 342 349 350 349 349 327 310 356 33 247 164 157 297 353 61 105 76 348 327
154 153 151 152 155 160 163 169 164 168 163 188 175 125 103 84 33 326 323 355 346 0 5 337 336 357 17 359 355 355 356 5 24 3 25 105 351 77 40 51 109 126 29
162 159 156 158 160 163 164 167 169 170 162 175 193 144 110 90 39 327 17 1 352 9 337 343 354 11 32 48 37 18 1 10 39 68 43 58 51 58 66 142 109 103 140
165 162 158 160 160 159 163 170 174 173 160 171 180 141 151 184 240 209 52 310 322 352 338 343 359 22 32 41 51 17 29 26 13 6 91 100 87 105 50 67 132 152 138
160 159 159 161 163 168 174 177 178 170 159 169 170 166 169 175 238 215 138 303 327 339 339 358 18 31 39 35 33 14 51 59 24 5 33 70 115 120 122 76 268 201 188
164 164 162 167 170 175 179 178 175 165 156 164 178 186 173 169 195 216 238 301 323 328 322 8 28 31 34 36 36 33 34 56 31 2 20 28 51 43 53 66 40 353 181
175 172 170 174 175 178 182 182 175 165 164 169 183 194 184 167 177 175 210 309 327 338 349 21 31 31 30 24 18 16 15 31 43 30 43 51 49 36 11 7 359 357 350
185 181 177 180 179 181 185 184 177 172 173 171 181 191 190 170 167 164 172 223 331 340 352 9 15 23 32 28 27 6 357 9 29 34 55 77 88 71 49 26 1 0 351
198 192 185 185 185 187 188 185 179 177 175 175 179 177 185 170 167 176 180 195 206 305 344 359 7 19 32 48 38 18 343 341 5 19 49 129 133 121 120 86 0 301 269
209 200 193 189 188 191 188 184 180 178 178 178 176 174 182 178 176 187 183 195 194 216 264 282 290 337 75 43 10 353 330 323 345 357 2 19 61 66 23 323 283 276 257
218 204 197 190 186 188 182 176 173 176 180 180 175 174 177 179 179 186 195 204 207 197 206 227 229 204 190 219 300 314 296 293 304 332 351 40 46 33 26 360 345 341 331
230 213 202 190 184 185 178 173 175 179 182 180 178 176 177 180 182 188 196 198 213 220 206 211 223 210 214 231 252 298 283 279 282 6 43 51 72 43 31 17 355 5 356
241 221 202 194 185 181 173 175 180 182 184 179 180 178 175 173 180 189 191 189 200 213 215 220 215 206 188 192 202 256 280 292 292 114 89 65 66 60 43 26 15 11 351
266 229 210 201 189 175 169 179 184 188 181 172 173 170 165 169 178 182 184 196 201 200 207 221 220 198 158 144 132 109 339 317 331 30 72 60 73 69 51 46 33 349 331
259 228 225 212 193 177 174 185 192 183 163 158 162 166 167 176 178 171 184 199 190 197 215 220 218 173 138 126 130 115 4 322 350 20 41 58 75 67 54 40 360 350 349
262 232 231 221 204 190 184 192 188 165 155 157 164 169 171 172 163 165 178 188 189 198 213 200 186 153 123 109 102 91 339 332 100 72 72 90 80 46 54 1 357 6 11
257 234 227 222 216 204 196 196 177 164 161 165 170 173 176 169 161 157 164 166 172 185 197 175 148 127 106 80 51 25 30 100 124 158 131 112 73 42 18 35 33 33 39
271 241 231 227 222 212 204 195 180 170 173 174 176 178 174 163 152 128 93 116 88 111 131 107 90 98 104 79 71 69 60 55 63 53 80 74 66 53 40 40 42 37 36
285 267 243 232 227 219 210 196 187 179 182 184 181 176 167 158 148 136 109 67 89 90 88 92 103 87 102 112 93 81 74 68 65 77 82 74 70 65 55 48 41 38 32
Height
1490 1492 1495 1498 1500 1501 1502 1501 1501 1501 1500 1499 1498 1497 1497 1496 1495 1494 1493 1492 1491 1489 1489 1488 1487 1487 1487 1487 1487 1487 1487 1488 1489 1490 1490 1491 1492 1493 1495 1497 1498 1500 1502
1486 1490 1493 1496 1499 1500 1501 1501 1500 1500 1499 1498 1497 1497 1496 1495 1494 1493 1492 1491 1490 1488 1487 1487 1486 1486 1485 1485 1485 1486 1486 1486 1487 1488 1488 1489 1491 1491 1493 1494 1496 1498 1500
1484 1487 1491 1494 1497 1498 1499 1500 1499 1499 1498 1497 1496 1496 1495 1494 1493 1492 1491 1490 1489 1488 1486 1485 1485 1485 1484 1484 1484 1484 1485 1485 1486 1487 1488 1489 1489 1490 1491 1492 1494 1496 1498
1482 1485 1488 1492 1494 1496 1497 1498 1498 1498 1497 1496 1495 1495 1495 1494 1493 1492 1490 1489 1488 1487 1486 1485 1484 1484 1483 1483 1483 1483 1484 1484 1485 1486 1487 1488 1488 1489 1490 1491 1492 1494 1495
1480 1483 1487 1490 1493 1494 1495 1496 1496 1496 1495 1495 1494 1494 1494 1493 1492 1491 1490 1489 1488 1486 1485 1484 1483 1483 1482 1482 1482 1482 1483 1483 1484 1485 1486 1487 1487 1488 1489 1489 1491 1492 1494
1479 1482 1485 1488 1491 1492 1493 1495 1495 1495 1494 1494 1494 1494 1493 1493 1492 1491 1490 1489 1488 1486 1485 1484 1483 1482 1482 1481 1481 1481 1482 1482 1483 1484 1485 1485 1486 1487 1488 1488 1489 1490 1492
1477 1480 1483 1486 1489 1490 1491 1493 1493 1493 1493 1493 1493 1493 1493 1492 1492 1491 1490 1489 1488 1486 1485 1484 1483 1482 1481 1481 1480 1481 1481 1482 1482 1483 1484 1484 1485 1486 1487 1488 1488 1489 1490
1476 1479 1481 1484 1486 1488 1490 1491 1491 1492 1492 1492 1493 1493 1492 1492 1491 1490 1490 1489 1487 1486 1485 1483 1482 1481 1481 1480 1480 1480 1480 1481 1481 1482 1483 1483 1484 1485 1486 1487 1488 1488 1489
1474 1477 1479 1482 1484 1486 1487 1489 1490 1490 1491 1491 1492 1492 1492 1491 1491 1490 1489 1489 1488 1486 1485 1484 1483 1482 1481 1480 1480 1480 1480 1480 1480 1481 1482 1482 1483 1484 1485 1486 1487 1488 1488
1473 1475 1477 1480 1482 1484 1485 1487 1488 1489 1489 1490 1490 1491 1491 1490 1490 1490 1489 1488 1487 1486 1485 1484 1483 1482 1481 1480 1480 1480 1480 1480 1480 1480 1481 1481 1482 1483 1484 1485 1486 1486 1487
1471 1473 1475 1478 1480 1482 1483 1485 1486 1487 1488 1488 1489 1489 1489 1489 1489 1489 1488 1488 1487 1487 1486 1485 1484 1482 1482 1481 1480 1480 1480 1480 1480 1480 1481 1481 1481 1482 1483 1484 1485 1485 1486
1468 1470 1473 1475 1477 1479 1481 1482 1484 1485 1486 1487 1488 1488 1488 1488 1489 1489 1488 1488 1487 1487 1486 1485 1484 1483 1482 1481 1481 1480 1481 1480 1480 1481 1481 1481 1482 1482 1482 1483 1483 1484 1485
1465 1468 1470 1472 1474 1476 1478 1480 1481 1483 1483 1485 1486 1486 1487 1487 1488 1488 1488 1488 1487 1487 1486 1485 1485 1484 1483 1482 1482 1481 1481 1481 1481 1481 1481 1481 1481 1482 1482 1482 1482 1483 1483
1462 1464 1467 1469 1471 1473 1475 1477 1479 1480 1481 1482 1483 1485 1485 1486 1486 1487 1487 1487 1487 1487 1486 1486 1485 1484 1484 1483 1482 1482 1482 1482 1481 1481 1481 1481 1481 1481 1481 1481 1481 1482 1482
1458 1460 1463 1465 1468 1470 1472 1474 1476 1477 1479 1480 1481 1482 1484 1485 1485 1485 1486 1486 1486 1486 1486 1485 1485 1484 1484 1483 1483 1482 1482 1482 1482 1481 1481 1481 1481 1481 1480 1480 1480 1481 1481
1454 1456 1459 1461 1463 1466 1468 1471 1473 1475 1476 1478 1479 1480 1482 1483 1483 1484 1484 1485 1485 1485 1485 1485 1485 1484 1484 1483 1483 1483 1482 1482 1482 1481 1481 1481 1480 1480 1480 1480 1480 1480 1480
1451 1452 1454 1456 1459 1461 1464 1466 1469 1472 1474 1475 1476 1478 1479 1480 1481 1482 1483 1483 1484 1484 1484 1484 1484 1484 1483 1483 1483 1482 1482 1482 1482 1481 1481 1481 1480 1480 1479 1479 1479 1479 1479
1447 1448 1450 1452 1454 1458 1460 1463 1466 1468 1470 1472 1474 1475 1477 1478 1479 1480 1481 1482 1482 1483 1483 1483 1483 1483 1483 1482 1482 1482 1482 1481 1481 1481 1481 1480 1480 1480 1479 1479 1478 1478 1478
1444 1445 1446 1448 1451 1454 1456 1459 1462 1465 1467 1469 1471 1472 1474 1475 1476 1478 1479 1480 1480 1481 1481 1481 1481 1481 1481 1481 1481 1481 1481 1481 1481 1480 1480 1480 1479 1479 1479 1478 1478 1477 1477
1442 1443 1444 1445 1447 1450 1453 1455 1458 1460 1462 1465 1467 1469 1471 1472 1474 1475 1476 1477 1478 1479 1479 1479 1479 1479 1480 1480 1480 1480 1479 1479 1479 1479 1479 1479 1478 1478 1478 1477 1477 1476 1476
1440 1441 1441 1443 1444 1446 1449 1451 1454 1456 1458 1461 1464 1466 1468 1469 1471 1472 1473 1474 1475 1476 1477 1477 1477 1478 1478 1477 1478 1478 1477 1477 1477 1477 1477 1477 1477 1477 1476 1476 1476 1475 1475
1439 1439 1439 1440 1441 1443 1445 1447 1450 1452 1455 1457 1460 1462 1464 1466 1467 1469 1470 1471 1472 1473 1474 1475 1475 1475 1475 1475 1475 1475 1475 1475 1475 1475 1475 1475 1475 1475 1475 1474 1474 1474 1474
1437 1437 1436 1437 1438 1439 1441 1443 1445 1448 1450 1453 1455 1458 1460 1462 1464 1465 1467 1468 1469 1470 1471 1472 1473 1473 1473 1473 1473 1473 1473 1472 1473 1473 1473 1473 1473 1473 1473 1473 1473 1472 1472
1435 1434 1434 1433 1434 1435 1436 1438 1441 1443 1446 1448 1451 1453 1456 1458 1460 1461 1463 1464 1465 1466 1468 1469 1469 1470 1470 1470 1470 1470 1470 1470 1470 1470 1471 1471 1471 1471 1471 1471 1471 1471 1470
1432 1431 1430 1429 1429 1430 1432 1434 1436 1438 1441 1443 1446 1448 1451 1453 1455 1457 1459 1460 1461 1463 1464 1465 1466 1466 1467 1467 1468 1468 1468 1468 1469 1469 1469 1469 1469 1469 1469 1469 1469 1469 1469
1428 1426 1426 1425 1425 1426 1427 1428 1430 1433 1435 1438 1440 1443 1446 1448 1450 1452 1454 1456 1458 1459 1460 1462 1463 1463 1464 1465 1465 1465 1466 1466 1466 1467 1467 1467 1467 1468 1468 1468 1468 1467 1467